Regional Weather Roundup
Issued by NWS

Home | Current Version | Previous Version | Graphics & Text | Print | Product List | Glossary On
Versions: 1 2 3 4 5 6 7 8 9 10 11 12 13 14 15 16 17 18 19 20 21 22 23 24 25 26 27 28 29 30 31 32 33 34 35 36 37 38 39 40 41 42 43 44 45 46 47 48 49 50
000
ASUS43 KMPX 230910
RWRMN
WEATHER ROUNDUP FOR MINNESOTA
NATIONAL WEATHER SERVICE TWIN CITIES/CHANHASSEN MN
400 AM CDT SUN JUL 23 2017


NOTE: "FAIR" INDICATES FEW OR NO CLOUDS BELOW 12,000 FEET WITH NO
SIGNIFICANT WEATHER AND/OR OBSTRUCTIONS TO VISIBILITY. N/A MEANS
CURRENT SKY AND/OR WEATHER CONDITIONS ARE NOT AVAILABLE.

MNZ060>063-068>070-231000-
   Twin Cities Metro

CITY           SKY/WX    TMP DP  RH WIND       PRES   REMARKS
TWIN CITIES    MOCLDY    73  55  53 N6        29.83S
ST PAUL        MOCLDY    69  58  67 NW6       29.83S
CRYSTAL        PTCLDY    69  54  58 NW7       29.83R
BLAINE         PTCLDY    68  57  68 NW5       29.83F
LAKEVILLE      PTCLDY    64  61  88 CALM      29.84S
EDEN PRAIRIE   MOCLDY    72  56  57 N7        29.83S
SOUTH ST PAUL  MOCLDY    72  54  53 N5        29.83R
LAKE ELMO      FAIR      68  55  64 NW5       29.84S
$$
MNZ001>005-007-008-013>017-022>024-027-028-231000-
   Northwest Minnesota

CITY           SKY/WX    TMP DP  RH WIND       PRES   REMARKS
BEMIDJI        MOCLDY    60  58  92 NW10      29.88R
HALLOCK        PTCLDY    61  61 100 N8        29.92R
ROSEAU         CLOUDY    63  55  77 CALM      29.90R
WARROAD        PTCLDY    59  55  88 NW6       29.89R
THIEF RVR FALL CLOUDY    62  60  93 N10       29.91S
CROOKSTON      CLOUDY    63  61  94 N13       29.91S
FOSSTON        CLOUDY    59  57  94 NW7       29.91R
DETROIT LAKES  CLOUDY    61  59  94 NW12      29.91S
MOORHEAD       CLEAR     57  55  94 NW3       29.93R
PARK RAPIDS    CLOUDY    61  58  90 NW7       29.88S
MAHNOMEN       FAIR      58  57  96 NW7       29.90S
$$
MNZ006-009>011-018-025>026-231000-
   North Central Minnesota

CITY           SKY/WX    TMP DP  RH WIND       PRES   REMARKS
BAUDETTE       MOCLDY    58  58 100 N5        29.86R FOG
FLAG ISLAND    CLEAR     64  61  88 NE8       29.88R
INTL FALLS     CLOUDY    61  59  93 E6        29.85R
WASKISH        CLEAR     59  57  94 N6        29.86S
BIG FORK       CLOUDY    55  55 100 CALM      29.85S FOG
LONGVILLE      CLOUDY    63  57  82 NW3       29.86S
GRAND RAPIDS   CLEAR     61  58  90 NW8       29.87R
CRANE LAKE     PTCLDY    57  55  94 CALM      29.86S FOG
ORR            CLOUDY    61  57  88 CALM      29.83R
COOK           MOCLDY    59  57  94 CALM      29.85R
WALKER         CLOUDY    59  57  92 NW6       29.87S
$$
MNZ012-019>021-037-231000-
   Northeast Minnesota

CITY           SKY/WX    TMP DP  RH WIND       PRES   REMARKS
DULUTH         FOG       53  53 100 W6        29.82F VSB 1/2
ELY            CLOUDY    61  59  94 N3        29.84R
HIBBING        MOCLDY    57  57 100 NW7       29.83S
EVELETH        PTCLDY    60  60  98 CALM      29.85R
DULUTH HARBOR  CLOUDY    57  55  94 CALM      29.82F
TWO HARBORS    CLOUDY    57  54  88 CALM      29.81R HAZE
SILVER BAY     CLOUDY    55  54  94 CALM      29.82R
GRAND MARAIS     N/A     57  55  93 CALM      29.82S
G MARAIS ARPRT CLOUDY    54  50  87 N7        29.85S
$$
MNZ029>031-032-039>041-046>048-054>057-064-231000-
   West Central Minnesota

CITY           SKY/WX    TMP DP  RH WIND       PRES   REMARKS
FERGUS FALLS   CLEAR     61  61 100 NW10      29.91S
WHEATON        CLEAR     63  57  82 W5        29.94R
MORRIS         CLEAR     63  57  82 NW7       29.91R
ALEXANDRIA     CLEAR     63  58  83 NW6       29.91S
ELBOW LAKE     FAIR      61  59  95 NW7       29.92R
WADENA         MOCLDY    61  57  88 NW7       29.89S
GLENWOOD       CLEAR     61  57  88 NW6       29.91R
APPLETON       CLEAR     64  57  77 NW8       29.90F
BENSON         CLEAR     59  57  94 N7        29.92R
ORTONVILLE     CLEAR     64  61  88 NW8       29.92S
MADISON        CLEAR     64  64 100 W7        29.92S
WILLMAR        FAIR      64  63  94 W5        29.90S
$$
MNZ033>034-036-042>043-049>051-058-059-231000-
   Central Minnesota

CITY           SKY/WX    TMP DP  RH WIND       PRES   REMARKS
ST CLOUD       PTCLDY    62  58  86 NW7       29.86S
SAUK CENTRE    FAIR      61  58  89 W3        29.89S
PAYNESVILLE    CLEAR     64  59  83 NW5       29.89S
AITKIN         CLOUDY    57  54  88 CALM      29.84S
PINE RIVER     MOCLDY    61  55  82 W5        29.90F
BRAINERD       PTCLDY    62  57  83 NW5       29.87R
STAPLES        CLOUDY    61  57  88 W5        29.88S
LONG PRAIRIE   FAIR      61  55  82 W5        29.90R
LITTLE FALLS   CLEAR     61  54  77 CALM      29.88R
LITCHFIELD     PTCLDY    68  61  77 NW5       29.88S
BUFFALO        PTCLDY    68  56  66 NW5       29.86S
MAPLE LAKE     CLOUDY    67  60  76 NW5       29.87S
HUTCHINSON     PTCLDY    67  62  83 NW5       29.88S
$$
MNZ037-044-045-052-053-231000-
   East Central Minnesota

CITY           SKY/WX    TMP DP  RH WIND       PRES   REMARKS
PRINCETON      MOCLDY    64  57  77 NW6       29.85S
MORA           CLEAR     61  54  77 NW6       29.86R
CAMBRIDGE      MOCLDY    68  55  64 NW6       29.83R
RUSH CITY      CLOUDY    65  57  75 NW5       29.83S
MOOSE LAKE     CLOUDY    55  54  94 CALM      29.83R
HINCKLEY       FAIR      63  57  82 NW5       29.84R
CLOQUET        FOG       55  54  94 CALM      29.83F VSB<1/4
MCGREGOR       PTCLDY    61  55  82 NW3       29.85S
$$
MNZ071>073-080-081-089-090-097-098-231000-
   Southwest Minnesota

CITY           SKY/WX    TMP DP  RH WIND       PRES   REMARKS
MONTEVIDEO     CLEAR     63  55  77 N5        29.91R
GRANITE FALLS  PTCLDY    65  61  87 W6        29.92R
CANBY          CLEAR     64  60  88 CALM      29.95R
MARSHALL       CLEAR     64  61  90 NW9       29.93R
REDWOOD FALLS  PTCLDY    68  60  75 NW8       29.88R
OLIVIA         PTCLDY    64  61  88 NW3       29.88R
PIPESTONE      CLEAR     66  59  77 N5        29.95S
WINDOM         CLEAR     66  63  88 NW10      29.90R
WORTHINGTON    CLEAR     65  60  84 NW12      29.93R
JACKSON        CLEAR     66  61  82 W10       29.90R
SLAYTON        HVY RAIN  64  58  82 NW9       29.94R
$$
MNZ065>067-074>077-082>085-091>093-231000-
   South Central Minnesota

CITY           SKY/WX    TMP DP  RH WIND       PRES   REMARKS
MANKATO        PTCLDY    67  64  90 N5        29.86R
NEW ULM        PTCLDY    70  59  68 N6        29.86R
ST JAMES       CLEAR     66  63  88 W6        29.87R
FAIRMONT       CLEAR     68  64  87 W9        29.87S
GLENCOE        PTCLDY    68  64  87 NW5       29.85S
FARIBAULT      MOCLDY    66  66 100 CALM      29.85S
OWATONNA       PTCLDY    64  63  94 CALM      29.86S
WASECA         PTCLDY    63  61  94 CALM      29.87S FOG
ALBERT LEA     CLEAR     70  66  88 CALM      29.85S
$$
MNZ078>079-086>088-094>096-231000-
   Southeast Minnesota

CITY           SKY/WX    TMP DP  RH WIND       PRES   REMARKS
ROCHESTER      CLEAR     65  63  93 NW8       29.85R
RED WING       MOCLDY    64  63  94 CALM      29.82R
STANTON        MOCLDY    64  62  94 CALM      29.83S
DODGE CENTER   PTCLDY    66  64  94 CALM      29.86R
WINONA         FOG       68  66  94 NW3       29.82R VSB 1/2
AUSTIN         CLEAR     66  64  94 CALM      29.84S
PRESTON        CLEAR     66  64  93 CALM      29.84S
$$
ABBREVIATIONS USED IN REMARKS
   TC - TEMPERATURES IN CELSIUS
  WCI - WIND CHILL INDEX
   HX - HEAT INDEX
  VSB - VISIBILITY
$$




USA.gov is the U.S. government's official web portal to all federal, state and local government web resources and services.